Regional Weather Roundup
Issued by NWS

Home | Current Version | Previous Version | Graphics & Text | Print | Product List | Glossary On
Versions: 1 2 3 4 5 6 7 8 9 10 11 12 13 14 15 16 17 18 19 20 21 22 23 24 25 26 27 28 29 30 31 32 33 34 35 36 37 38 39 40 41 42 43 44 45 46 47 48 49 50
000
ASUS43 KTOP 251808
RWRKS

WEATHER ROUNDUP FOR KANSAS
NATIONAL WEATHER SERVICE GOODLAND KS
100 PM CDT SUN SEP 25 2016

NOTE:  "FAIR" INDICATES FEW OR NO CLOUDS BELOW 12,000 FEET WITH NO
SIGNIFICANT WEATHER AND/OR OBSTRUCTIONS TO VISIBILITY.

KSZ001>006-013>018-027>032-041>047-251900-
NORTHWEST KANSAS

CITY           SKY/WX    TMP DP  RH WIND       PRES   REMARKS
GOODLAND       SUNNY     67  33  28 N22G30    30.37F
6HR MIN TEMP:  48; 6HR MAX TEMP:  67;

HAYS           SUNNY     72  43  35 N22       30.28F
HILL CITY      SUNNY     71  43  36 N17G24    30.30F
6HR MIN TEMP:  54; 6HR MAX TEMP:  71;

RUSSELL        SUNNY     70  46  42 N22G28    30.26S
6HR MIN TEMP:  52; 6HR MAX TEMP:  71;

$$

KSZ061>065-074>080-084>089-251900-
SOUTHWEST KANSAS

CITY           SKY/WX    TMP DP  RH WIND       PRES   REMARKS
DODGE CITY     MOSUNNY   71  43  36 N16G28    30.29S
6HR MIN TEMP:  50; 6HR MAX TEMP:  72;

ELKHART          N/A     68  37  32 N16         N/A
GARDEN CITY    SUNNY     71  37  28 N21G35    30.31F
6HR MIN TEMP:  52; 6HR MAX TEMP:  72;

GREAT BEND     SUNNY     70  46  43 N18G25    30.27F
LIBERAL        SUNNY     72  43  35 N20       30.32S
PRATT          PTSUNNY   66  45  46 N23G29    30.25S
6HR MIN TEMP:  53; 6HR MAX TEMP:  66;

$$

KSZ066>073-081>083-090>101-251900-
SOUTHEAST KANSAS

CITY           SKY/WX    TMP DP  RH WIND       PRES   REMARKS
CHANUTE        CLOUDY    63  60  90 NW12      30.15R
6HR MIN TEMP:  63; 6HR MAX TEMP:  72; 6HR PCP:  0.27;

COFFEYVILLE    LGT RAIN  71  68  90 NW9       30.12S
6HR MIN TEMP:  68; 6HR MAX TEMP:  74; 6HR PCP: TRACE;

HUTCHINSON     CLOUDY    66  49  54 N13G24    30.23F
6HR MIN TEMP:  59; 6HR MAX TEMP:  66;

MEDICINE LODGE   N/A     65  47  52 N20G26      N/A
NEWTON         MOSUNNY  N/A N/A N/A N18       30.21F
PARSONS        RAIN      69  67  93 NW18      30.14R
6HR MIN TEMP:  69; 6HR MAX TEMP:  72; 6HR PCP:  0.07;

WICHITA INTL   PTSUNNY   66  50  56 N17G23    30.21R
6HR MIN TEMP:  60; 6HR MAX TEMP:  68; 6HR PCP:  0.06;

WICHITA JABRA  CLOUDY    64  51  62 N15G25    30.20S
6HR MIN TEMP:  57; 6HR MAX TEMP:  67;

WICHITA MCCONL MOSUNNY   64  50  61 N20G29    30.21R
WINFIELD       CLOUDY    63  55  75 N14       30.20S
6HR MIN TEMP:  58; 6HR MAX TEMP:  68;

$$

KSZ007>012-019>026-033>040-048>060-102>105-251900-
NORTHEAST KANSAS

CITY           SKY/WX    TMP DP  RH WIND       PRES   REMARKS
CONCORDIA      SUNNY     71  48  43 N15G24    30.22F
6HR MIN TEMP:  55; 6HR MAX TEMP:  71;

EMPORIA        CLOUDY    63  56  78 N6        30.19S
6HR MIN TEMP:  58; 6HR MAX TEMP:  67; 6HR PCP:  0.35;

LAWRENCE       CLOUDY    62  57  83 NW7       30.18R
6HR MIN TEMP:  60; 6HR MAX TEMP:  68; 6HR PCP:  0.16;

MANHATTAN      CLOUDY    67  51  56 N8        30.20S
6HR MIN TEMP:  60; 6HR MAX TEMP:  67;

MARYSVILLE     CLOUDY    64  50  59 NW14      30.19S
OLATHE IND     CLOUDY    60  55  83 NW13      30.17S
6HR MIN TEMP:  60; 6HR MAX TEMP:  69; 6HR PCP:  0.32;

OLATHE EXE     CLOUDY    61  56  83 N12       30.15R
6HR MIN TEMP:  60; 6HR MAX TEMP:  69; 6HR PCP:  0.37;

SALINA         PTSUNNY   70  50  49 N20       30.22F
6HR MIN TEMP:  59; 6HR MAX TEMP:  70;

TOPEKA BILLARD CLOUDY    64  55  72 NW5       30.18S
6HR MIN TEMP:  59; 6HR MAX TEMP:  68; 6HR PCP:  0.22;

TOPEKA FORBES  CLOUDY    65  56  72 N7        30.18S
6HR MIN TEMP:  60; 6HR MAX TEMP:  75;

$$




USA.gov is the U.S. government's official web portal to all federal, state and local government web resources and services.